Lancaster, SC

3:20 PM EDT on April 27, 2017 (GMT -0400)
Lancaster County-McWhirter

Weather History for KLKR - January, 2012

Change the Weather History Date:

Sunday, January 8, 2012

  Actual Average (KUZA) Record (KUZA)
Temperature  
Mean Temperature 56 °F -  
Max Temperature 66 °F 50 °F 70 °F (2005)
Min Temperature 46 °F 32 °F 8 °F (1970)
Degree Days  
Heating Degree Days 9    
Growing Degree Days 6 (Base 50)    
Moisture  
Dew Point 50 °F    
Average Humidity 87    
Maximum Humidity 100    
Minimum Humidity 60    
Precipitation  
Precipitation 0.00 in - - ()
Sea Level Pressure  
Sea Level Pressure 30.17 in    
Wind  
Wind Speed 0 mph (NNE)    
Max Wind Speed 6 mph    
Max Gust Speed -    
Visibility 8 miles    
Events      
Averages and records for this station are not official NWS values.
T = Trace of Precipitation, MM = Missing Value Source: NWS Daily Summary

Daily Weather History Graph

Daily Weather History Graph

Search for Another Location

Airport or City:

Trip Planner

Search our weather history database for the weather conditions in past years. The results will help you decide how hot, cold, wet, or windy it might be!

Date:

Astronomy

Jan. 08, 2012 Rise Set
Actual Time 7:31 AM EST 5:28 PM EST
Civil Twilight 7:03 AM EST 5:56 PM EST
Nautical Twilight 6:32 AM EST 6:27 PM EST
Astronomical Twilight 6:01 AM EST 6:58 PM EST
Moon 5:09 PM EST (1/8) 6:48 AM EST (1/8)
Length of Visible Light 10h 53m
Length of Day
9h 57m
Full, 100% of the Moon is Illuminated
Jan 8
Full
Jan 9
Full
Jan 16
Last Quarter
Jan 23
New
Jan 30
First Quarter

Hourly Weather History & Observations

Time (EST) Temp. Dew Point Humidity Pressure Visibility Wind Dir Wind Speed Gust Speed Precip Events Conditions
12:15 AM 55.4 °F 53.6 °F 94% 30.09 in 10.0 mi Calm Calm - N/A   Partly Cloudy
12:35 AM 53.6 °F 53.6 °F 100% 30.09 in 10.0 mi Calm Calm - N/A   Clear
12:55 AM 51.8 °F 51.8 °F 100% 30.09 in 10.0 mi Calm Calm - N/A   Clear
1:15 AM 51.8 °F 51.8 °F 100% 30.10 in 9.0 mi Calm Calm - N/A   Clear
1:35 AM 50.0 °F 50.0 °F 100% 30.10 in 5.0 mi Calm Calm - N/A   Clear
1:55 AM 48.2 °F 48.2 °F 100% 30.10 in 4.0 mi Calm Calm - N/A   Clear
2:15 AM 48.2 °F 48.2 °F 100% 30.11 in 2.5 mi Calm Calm - N/A   Clear
2:35 AM 48.2 °F 48.2 °F 100% 30.11 in 5.0 mi Calm Calm - N/A   Clear
2:55 AM 48.2 °F 48.2 °F 100% 30.12 in 6.0 mi Calm Calm - N/A   Clear
3:15 AM 46.4 °F 46.4 °F 100% 30.12 in 1.2 mi Calm Calm - N/A   Scattered Clouds
3:35 AM 46.4 °F 46.4 °F 100% 30.13 in 7.0 mi Calm Calm - N/A   Mostly Cloudy
3:55 AM 48.2 °F 48.2 °F 100% 30.13 in 8.0 mi Calm Calm - N/A   Overcast
4:15 AM 48.2 °F 48.2 °F 100% 30.13 in 4.0 mi Calm Calm - N/A   Mostly Cloudy
4:35 AM 46.4 °F 46.4 °F 100% 30.14 in 3.0 mi Calm Calm - N/A   Mostly Cloudy
4:55 AM 46.4 °F 46.4 °F 100% 30.14 in 3.0 mi Calm Calm - N/A   Mostly Cloudy
5:15 AM 46.4 °F 46.4 °F 100% 30.15 in 5.0 mi Calm Calm - N/A   Mostly Cloudy
5:35 AM 46.4 °F 46.4 °F 100% 30.15 in 4.0 mi Calm Calm - N/A   Mostly Cloudy
6:15 AM 48.2 °F 48.2 °F 100% 30.17 in 5.0 mi Calm Calm - N/A   Mostly Cloudy
6:35 AM 48.2 °F 48.2 °F 100% 30.17 in 6.0 mi Calm Calm - N/A   Mostly Cloudy
6:55 AM 48.2 °F 48.2 °F 100% 30.18 in 2.0 mi Calm Calm - N/A   Mostly Cloudy
7:15 AM 46.4 °F 46.4 °F 100% 30.18 in 2.0 mi Calm Calm - N/A   Overcast
7:35 AM 46.4 °F 46.4 °F 100% 30.18 in 2.5 mi Calm Calm - N/A   Scattered Clouds
7:55 AM 46.4 °F 46.4 °F 100% 30.19 in 5.0 mi Calm Calm - N/A   Clear
8:15 AM 48.2 °F 48.2 °F 100% 30.19 in 4.0 mi Calm Calm - N/A   Partly Cloudy
8:35 AM 48.2 °F 48.2 °F 100% 30.20 in 5.0 mi Calm Calm - N/A   Scattered Clouds
8:55 AM 50.0 °F 50.0 °F 100% 30.21 in 10.0 mi Calm Calm - N/A   Mostly Cloudy
9:15 AM 51.8 °F 51.8 °F 100% 30.22 in 10.0 mi Calm Calm - N/A   Mostly Cloudy
9:35 AM 53.6 °F 53.6 °F 100% 30.23 in 10.0 mi Calm Calm - N/A   Partly Cloudy
9:55 AM 53.6 °F 53.6 °F 100% 30.23 in 10.0 mi Calm Calm - N/A   Partly Cloudy
10:15 AM 55.4 °F 53.6 °F 94% 30.23 in 10.0 mi Calm Calm - N/A   Scattered Clouds
10:35 AM 57.2 °F 53.6 °F 88% 30.23 in 10.0 mi Calm Calm - N/A   Partly Cloudy
10:55 AM 57.2 °F 53.6 °F 88% 30.22 in 10.0 mi SSE 3.5 mph - N/A   Clear
11:15 AM 59.0 °F 53.6 °F 82% 30.22 in 10.0 mi Calm Calm - N/A   Clear
11:35 AM 60.8 °F 53.6 °F 77% 30.22 in 10.0 mi Calm Calm - N/A   Partly Cloudy
11:55 AM 60.8 °F 53.6 °F 77% 30.21 in 10.0 mi Calm Calm - N/A   Mostly Cloudy
12:15 PM 62.6 °F 51.8 °F 68% 30.20 in 10.0 mi Calm Calm - N/A   Mostly Cloudy
12:35 PM 62.6 °F 51.8 °F 68% 30.19 in 10.0 mi Calm Calm - N/A   Mostly Cloudy
12:55 PM 62.6 °F 51.8 °F 68% 30.19 in 10.0 mi Calm Calm - N/A   Partly Cloudy
1:15 PM 64.4 °F 51.8 °F 64% 30.18 in 10.0 mi Calm Calm - N/A   Scattered Clouds
1:35 PM 64.4 °F 51.8 °F 64% 30.18 in 10.0 mi Calm Calm - N/A   Mostly Cloudy
1:55 PM 66.2 °F 53.6 °F 64% 30.17 in 10.0 mi Calm Calm - N/A   Mostly Cloudy
2:15 PM 66.2 °F 51.8 °F 60% 30.17 in 10.0 mi Calm Calm - N/A   Scattered Clouds
2:35 PM 64.4 °F 53.6 °F 68% 30.17 in 10.0 mi Calm Calm - N/A   Partly Cloudy
2:55 PM 64.4 °F 53.6 °F 68% 30.17 in 10.0 mi Calm Calm - N/A   Scattered Clouds
3:15 PM 64.4 °F 53.6 °F 68% 30.17 in 10.0 mi Calm Calm - N/A   Scattered Clouds
3:35 PM 64.4 °F 53.6 °F 68% 30.17 in 10.0 mi Calm Calm - N/A   Clear
3:55 PM 64.4 °F 53.6 °F 68% 30.18 in 10.0 mi Calm Calm - N/A   Scattered Clouds
4:15 PM 64.4 °F 55.4 °F 73% 30.18 in 10.0 mi Calm Calm - N/A   Mostly Cloudy
4:55 PM 60.8 °F 55.4 °F 82% 30.19 in 10.0 mi North 4.6 mph - N/A   Mostly Cloudy
5:15 PM 59.0 °F 48.2 °F 67% 30.19 in 10.0 mi North 5.8 mph - N/A   Mostly Cloudy
5:35 PM 57.2 °F 48.2 °F 72% 30.20 in 10.0 mi NNE 5.8 mph - N/A   Scattered Clouds
5:55 PM 57.2 °F 48.2 °F 72% 30.20 in 10.0 mi NNE 5.8 mph - N/A   Clear
6:15 PM 57.2 °F 48.2 °F 72% 30.21 in 10.0 mi Calm Calm - N/A   Partly Cloudy
6:35 PM 57.2 °F 48.2 °F 72% 30.21 in 10.0 mi Calm Calm - N/A   Scattered Clouds
6:55 PM 55.4 °F 46.4 °F 72% 30.21 in 10.0 mi Calm Calm - N/A   Mostly Cloudy
7:15 PM 57.2 °F 48.2 °F 72% 30.22 in 10.0 mi Calm Calm - N/A   Overcast
7:35 PM 55.4 °F 48.2 °F 77% 30.21 in 10.0 mi Calm Calm - N/A   Mostly Cloudy
7:55 PM 55.4 °F 48.2 °F 77% 30.22 in 10.0 mi Calm Calm - N/A   Mostly Cloudy
8:15 PM 53.6 °F 50.0 °F 88% 30.22 in 9.0 mi Calm Calm - N/A Rain Light Rain
8:35 PM 50.0 °F 50.0 °F 100% 30.22 in 10.0 mi Calm Calm - N/A   Partly Cloudy
8:55 PM 51.8 °F 51.8 °F 100% 30.23 in 10.0 mi Calm Calm - N/A   Mostly Cloudy
9:15 PM 51.8 °F 50.0 °F 94% 30.22 in 10.0 mi Calm Calm - N/A   Mostly Cloudy
9:35 PM 50.0 °F 50.0 °F 100% 30.23 in 8.0 mi Calm Calm - 0.01 in Rain Light Rain
9:55 PM 50.0 °F 50.0 °F 100% 30.22 in 5.0 mi Calm Calm - 0.03 in Rain Light Rain
10:15 PM 50.0 °F 50.0 °F 100% 30.22 in 3.0 mi Calm Calm - 0.02 in Rain Light Rain
10:35 PM 50.0 °F 50.0 °F 100% 30.23 in 7.0 mi Calm Calm - 0.02 in   Overcast
10:55 PM 50.0 °F 50.0 °F 100% 30.23 in 5.0 mi Calm Calm - 0.02 in Rain Light Rain
11:15 PM 50.0 °F 50.0 °F 100% 30.22 in 5.0 mi Calm Calm - N/A   Mostly Cloudy
11:35 PM 48.2 °F 48.2 °F 100% 30.21 in 4.0 mi Calm Calm - N/A   Mostly Cloudy
11:55 PM 48.2 °F 48.2 °F 100% 30.21 in 5.0 mi Calm Calm - N/A   Mostly Cloudy